Location: Central Falls
(41.8900°N, 71.3929°W)
Time: 03:43:34
(UTC+00:00)

Tiros 1 - Pass Details

Date: 07 December 2023
Orbit: 625 x 658 km, 48.4° (Epoch: 01 March)

Event Time Altitude Azimuth Distance (km) Brightness Sun altitude
Rises 10:14:36 0° 273° (W) 2,980 - -18.9°
Reaches altitude 10° 10:17:04 10° 281° (W) 2,071 - -18.4°
Exits shadow 10:20:07 32° 310° (NW) 1,135 7.9 -17.9°
Maximum altitude 10:21:35 40° 351° (N) 968 7.8 -17.6°
Drops below altitude 10° 10:26:07 10° 62° (ENE) 2,074 10.4 -16.8°
Sets 10:28:35 0° 69° (ENE) 2,984 11.5 -16.4°
